User: anonymous   Login
Location: Allonne
(49.4086°N, 2.1143°E)
Time: 03:49:12
(UTC+00:00)
Language:

BlueWalker 3 - Orbit

View from above orbital plane
View from above orbital plane
View from above satellite
View from above satellite

Ground track
Ground track

The orbit data is extracted from the following two-line orbital elements,

1 53807U 22111AL  24170.76832646  .00004772  00000-0  19482-3 0  9993
2 53807  53.2367 186.3369 0009776  94.2644 265.9474 15.26233913 98475
Epoch (UTC): 18 June 2024 18:26:23
Eccentricity: 0.0009776
inclination: 53.2367°
perigee height: 480 km
apogee height: 494 km
right ascension of ascending node: 186.3369°
argument of perigee: 94.2644°
revolutions per day: 15.26233913
mean anomaly at epoch: 265.9474°
orbit number at epoch: 9847

The dashed part of the orbit path shows where the satellite is in the earth's shadow,  

DLR